ARIANE 1 DEB

基本信息
目录编号:
25824
目录名称:
ARIANE 1 DEB
国际标识:
1984-023F
轨道中心:
EARTH
物体状态:
在轨
发射日期:
1984-03-05 UTC
轨道信息
数据来源: 国际轨道数据
星历时间: 2026-02-19T14:30:22+0800
半长轴: 22531.823km
偏心率: 0.6791775
轨道倾角: 8.283°
近地点辐角: 151.448°
升交点赤经: 45.054°
平近点角: 352.438°
近地点: 850.578km
远地点: 31456.794km
周期: 560.989分钟
每日圈数: 2.566896
详细信息
发射场:
FRGUI
轨道高度:
LEO
数据来源:
AOE Integration Group
参考系:
TEME
时间系统:
UTC
历元类型:
SGP4
2D轨道图
3D轨道图
轨道高度分析图
轨道倾角分析图
轨道综合分析图
查看轨道综合分析图